owner,sensor,date,latitude,longitude,vertical_datum,sea_water_temperature,qcFlag 
TCOON,ioos:station:TCOON:127:1,2019-05-01T00:24:00Z,28.2598,-96.7737,0.0,25.4,11111222 
TCOON,ioos:station:TCOON:127:1,2019-05-01T01:24:00Z,28.2598,-96.7737,0.0,25.4,11111222 
TCOON,ioos:station:TCOON:127:1,2019-05-01T02:24:00Z,28.2598,-96.7737,0.0,25.3,11111222 
TCOON,ioos:station:TCOON:127:1,2019-05-01T03:24:00Z,28.2598,-96.7737,0.0,25.3,11111222 
TCOON,ioos:station:TCOON:127:1,2019-05-01T04:24:00Z,28.2598,-96.7737,0.0,25.3,11111222 
TCOON,ioos:station:TCOON:127:1,2019-05-01T05:54:00Z,28.2598,-96.7737,0.0,25.2,11111222 
TCOON,ioos:station:TCOON:127:1,2019-05-01T06:24:00Z,28.2598,-96.7737,0.0,25.2,11111222 
TCOON,ioos:station:TCOON:127:1,2019-05-01T07:24:00Z,28.2598,-96.7737,0.0,25.1,11111222 
TCOON,ioos:station:TCOON:127:1,2019-05-01T08:24:00Z,28.2598,-96.7737,0.0,25.1,11111222 
TCOON,ioos:station:TCOON:127:1,2019-05-01T09:24:00Z,28.2598,-96.7737,0.0,25.1,11111222 
TCOON,ioos:station:TCOON:127:1,2019-05-01T10:24:00Z,28.2598,-96.7737,0.0,25.0,11111222 
TCOON,ioos:station:TCOON:127:1,2019-05-01T11:24:00Z,28.2598,-96.7737,0.0,25.0,11111222 
TCOON,ioos:station:TCOON:127:1,2019-05-01T12:24:00Z,28.2598,-96.7737,0.0,24.9,11111222 
TCOON,ioos:station:TCOON:127:1,2019-05-01T13:24:00Z,28.2598,-96.7737,0.0,24.9,11111222 
TCOON,ioos:station:TCOON:127:1,2019-05-01T14:24:00Z,28.2598,-96.7737,0.0,24.9,11111222 
TCOON,ioos:station:TCOON:127:1,2019-05-01T15:24:00Z,28.2598,-96.7737,0.0,25.1,11111222 
TCOON,ioos:station:TCOON:127:1,2019-05-01T16:24:00Z,28.2598,-96.7737,0.0,25.2,11111222 
TCOON,ioos:station:TCOON:127:1,2019-05-01T17:24:00Z,28.2598,-96.7737,0.0,25.4,11111222 
TCOON,ioos:station:TCOON:127:1,2019-05-01T18:24:00Z,28.2598,-96.7737,0.0,25.6,11111222 
TCOON,ioos:station:TCOON:127:1,2019-05-01T19:24:00Z,28.2598,-96.7737,0.0,25.6,11111222 
TCOON,ioos:station:TCOON:127:1,2019-05-01T20:24:00Z,28.2598,-96.7737,0.0,25.7,11111222 
TCOON,ioos:station:TCOON:127:1,2019-05-01T21:24:00Z,28.2598,-96.7737,0.0,25.7,11111222 
TCOON,ioos:station:TCOON:127:1,2019-05-01T22:24:00Z,28.2598,-96.7737,0.0,25.8,11111222 
TCOON,ioos:station:TCOON:127:1,2019-05-01T23:24:00Z,28.2598,-96.7737,0.0,25.8,11111222 
TCOON,ioos:station:TCOON:127:1,2019-05-02T00:24:00Z,28.2598,-96.7737,0.0,25.7,11111222 
TCOON,ioos:station:TCOON:127:1,2019-05-02T01:24:00Z,28.2598,-96.7737,0.0,25.7,11111222 
TCOON,ioos:station:TCOON:127:1,2019-05-02T02:24:00Z,28.2598,-96.7737,0.0,25.6,11111222 
TCOON,ioos:station:TCOON:127:1,2019-05-02T03:24:00Z,28.2598,-96.7737,0.0,25.6,11111222 
TCOON,ioos:station:TCOON:127:1,2019-05-02T04:24:00Z,28.2598,-96.7737,0.0,25.5,11111222 
TCOON,ioos:station:TCOON:127:1,2019-05-02T05:24:00Z,28.2598,-96.7737,0.0,25.4,11111222 
TCOON,ioos:station:TCOON:127:1,2019-05-02T06:24:00Z,28.2598,-96.7737,0.0,25.4,11111222 
TCOON,ioos:station:TCOON:127:1,2019-05-02T07:24:00Z,28.2598,-96.7737,0.0,25.4,11111222 
TCOON,ioos:station:TCOON:127:1,2019-05-02T08:24:00Z,28.2598,-96.7737,0.0,25.4,11111222 
TCOON,ioos:station:TCOON:127:1,2019-05-02T10:24:00Z,28.2598,-96.7737,0.0,25.3,11111222 
TCOON,ioos:station:TCOON:127:1,2019-05-02T11:24:00Z,28.2598,-96.7737,0.0,25.3,11111222 
TCOON,ioos:station:TCOON:127:1,2019-05-02T12:30:00Z,28.2598,-96.7737,0.0,25.3,11111222 
TCOON,ioos:station:TCOON:127:1,2019-05-02T13:30:00Z,28.2598,-96.7737,0.0,25.3,11111222 
TCOON,ioos:station:TCOON:127:1,2019-05-02T14:30:00Z,28.2598,-96.7737,0.0,25.3,11111222 
TCOON,ioos:station:TCOON:127:1,2019-05-02T15:24:00Z,28.2598,-96.7737,0.0,25.4,11111222 
TCOON,ioos:station:TCOON:127:1,2019-05-02T16:24:00Z,28.2598,-96.7737,0.0,25.5,11111222 
TCOON,ioos:station:TCOON:127:1,2019-05-02T17:30:00Z,28.2598,-96.7737,0.0,25.5,11111222 
TCOON,ioos:station:TCOON:127:1,2019-05-02T18:24:00Z,28.2598,-96.7737,0.0,25.5,11111222 
TCOON,ioos:station:TCOON:127:1,2019-05-02T19:30:00Z,28.2598,-96.7737,0.0,25.7,11111222 
TCOON,ioos:station:TCOON:127:1,2019-05-02T20:30:00Z,28.2598,-96.7737,0.0,25.8,11111222 
TCOON,ioos:station:TCOON:127:1,2019-05-02T21:24:00Z,28.2598,-96.7737,0.0,25.9,11111222 
TCOON,ioos:station:TCOON:127:1,2019-05-02T22:24:00Z,28.2598,-96.7737,0.0,25.9,11111222 
TCOON,ioos:station:TCOON:127:1,2019-05-02T23:24:00Z,28.2598,-96.7737,0.0,25.9,11111222 
TCOON,ioos:station:TCOON:127:1,2019-05-03T00:24:00Z,28.2598,-96.7737,0.0,25.8,11111222 
TCOON,ioos:station:TCOON:127:1,2019-05-03T01:24:00Z,28.2598,-96.7737,0.0,25.8,11111222 
TCOON,ioos:station:TCOON:127:1,2019-05-03T02:24:00Z,28.2598,-96.7737,0.0,25.7,11111222 
TCOON,ioos:station:TCOON:127:1,2019-05-03T03:24:00Z,28.2598,-96.7737,0.0,25.7,11111222 
TCOON,ioos:station:TCOON:127:1,2019-05-03T04:24:00Z,28.2598,-96.7737,0.0,25.6,11111222 
TCOON,ioos:station:TCOON:127:1,2019-05-03T05:24:00Z,28.2598,-96.7737,0.0,25.6,11111222 
TCOON,ioos:station:TCOON:127:1,2019-05-03T06:24:00Z,28.2598,-96.7737,0.0,25.6,11111222 
TCOON,ioos:station:TCOON:127:1,2019-05-03T07:24:00Z,28.2598,-96.7737,0.0,25.5,11111222 
TCOON,ioos:station:TCOON:127:1,2019-05-03T08:24:00Z,28.2598,-96.7737,0.0,25.5,11111222 
TCOON,ioos:station:TCOON:127:1,2019-05-03T09:24:00Z,28.2598,-96.7737,0.0,25.4,11111222 
TCOON,ioos:station:TCOON:127:1,2019-05-03T10:24:00Z,28.2598,-96.7737,0.0,25.4,11111222 
TCOON,ioos:station:TCOON:127:1,2019-05-03T11:24:00Z,28.2598,-96.7737,0.0,25.3,11111222 
TCOON,ioos:station:TCOON:127:1,2019-05-03T12:24:00Z,28.2598,-96.7737,0.0,25.3,11111222 
TCOON,ioos:station:TCOON:127:1,2019-05-03T13:30:00Z,28.2598,-96.7737,0.0,25.3,11111222 
TCOON,ioos:station:TCOON:127:1,2019-05-03T14:30:00Z,28.2598,-96.7737,0.0,25.2,11111222 
TCOON,ioos:station:TCOON:127:1,2019-05-03T15:24:00Z,28.2598,-96.7737,0.0,25.2,11111222 
TCOON,ioos:station:TCOON:127:1,2019-05-03T16:30:00Z,28.2598,-96.7737,0.0,25.0,11111222 
TCOON,ioos:station:TCOON:127:1,2019-05-03T17:30:00Z,28.2598,-96.7737,0.0,24.9,11111222 
TCOON,ioos:station:TCOON:127:1,2019-05-03T18:30:00Z,28.2598,-96.7737,0.0,24.8,11111222 
TCOON,ioos:station:TCOON:127:1,2019-05-03T19:30:00Z,28.2598,-96.7737,0.0,24.8,11111222 
TCOON,ioos:station:TCOON:127:1,2019-05-03T20:24:00Z,28.2598,-96.7737,0.0,24.8,11111222 
TCOON,ioos:station:TCOON:127:1,2019-05-03T21:30:00Z,28.2598,-96.7737,0.0,25.1,11111222 
TCOON,ioos:station:TCOON:127:1,2019-05-03T22:30:00Z,28.2598,-96.7737,0.0,25.0,11111222 
TCOON,ioos:station:TCOON:127:1,2019-05-03T23:24:00Z,28.2598,-96.7737,0.0,25.2,11111222 
TCOON,ioos:station:TCOON:127:1,2019-05-04T00:24:00Z,28.2598,-96.7737,0.0,25.1,11111222 
TCOON,ioos:station:TCOON:127:1,2019-05-04T01:24:00Z,28.2598,-96.7737,0.0,25.1,11111222 
TCOON,ioos:station:TCOON:127:1,2019-05-04T02:24:00Z,28.2598,-96.7737,0.0,25.1,11111222 
TCOON,ioos:station:TCOON:127:1,2019-05-04T03:30:00Z,28.2598,-96.7737,0.0,25.0,11111222 
TCOON,ioos:station:TCOON:127:1,2019-05-04T04:24:00Z,28.2598,-96.7737,0.0,25.0,11111222 
TCOON,ioos:station:TCOON:127:1,2019-05-04T05:24:00Z,28.2598,-96.7737,0.0,25.1,11111222 
TCOON,ioos:station:TCOON:127:1,2019-05-04T06:24:00Z,28.2598,-96.7737,0.0,25.0,11111222 
TCOON,ioos:station:TCOON:127:1,2019-05-04T07:24:00Z,28.2598,-96.7737,0.0,24.6,11111222 
TCOON,ioos:station:TCOON:127:1,2019-05-04T08:24:00Z,28.2598,-96.7737,0.0,24.5,11111222 
TCOON,ioos:station:TCOON:127:1,2019-05-04T09:24:00Z,28.2598,-96.7737,0.0,24.4,11111222 
TCOON,ioos:station:TCOON:127:1,2019-05-04T10:24:00Z,28.2598,-96.7737,0.0,24.4,11111222 
TCOON,ioos:station:TCOON:127:1,2019-05-04T11:24:00Z,28.2598,-96.7737,0.0,24.3,11111222 
TCOON,ioos:station:TCOON:127:1,2019-05-04T12:24:00Z,28.2598,-96.7737,0.0,24.2,11111222 
TCOON,ioos:station:TCOON:127:1,2019-05-04T13:24:00Z,28.2598,-96.7737,0.0,24.2,11111222 
TCOON,ioos:station:TCOON:127:1,2019-05-04T14:24:00Z,28.2598,-96.7737,0.0,24.4,11111222 
TCOON,ioos:station:TCOON:127:1,2019-05-04T15:24:00Z,28.2598,-96.7737,0.0,24.5,11111222 
TCOON,ioos:station:TCOON:127:1,2019-05-04T16:24:00Z,28.2598,-96.7737,0.0,24.5,11111222 
TCOON,ioos:station:TCOON:127:1,2019-05-04T17:24:00Z,28.2598,-96.7737,0.0,24.8,11111222 
TCOON,ioos:station:TCOON:127:1,2019-05-04T18:24:00Z,28.2598,-96.7737,0.0,25.0,11111222 
TCOON,ioos:station:TCOON:127:1,2019-05-04T19:24:00Z,28.2598,-96.7737,0.0,25.2,11111222 
TCOON,ioos:station:TCOON:127:1,2019-05-04T20:24:00Z,28.2598,-96.7737,0.0,25.6,11111222 
TCOON,ioos:station:TCOON:127:1,2019-05-04T21:24:00Z,28.2598,-96.7737,0.0,26.1,11111222 
TCOON,ioos:station:TCOON:127:1,2019-05-04T22:24:00Z,28.2598,-96.7737,0.0,26.4,11111222 
TCOON,ioos:station:TCOON:127:1,2019-05-04T23:24:00Z,28.2598,-96.7737,0.0,26.4,11111222 
TCOON,ioos:station:TCOON:127:1,2019-05-05T00:24:00Z,28.2598,-96.7737,0.0,26.4,11111222 
TCOON,ioos:station:TCOON:127:1,2019-05-05T01:24:00Z,28.2598,-96.7737,0.0,26.3,11111222 
TCOON,ioos:station:TCOON:127:1,2019-05-05T02:24:00Z,28.2598,-96.7737,0.0,26.1,11111222 
TCOON,ioos:station:TCOON:127:1,2019-05-05T04:24:00Z,28.2598,-96.7737,0.0,25.8,11111222 
TCOON,ioos:station:TCOON:127:1,2019-05-07T05:24:00Z,28.2598,-96.7737,0.0,25.3,11111222 
TCOON,ioos:station:TCOON:127:1,2019-05-07T06:24:00Z,28.2598,-96.7737,0.0,25.3,11111222 
TCOON,ioos:station:TCOON:127:1,2019-05-07T07:24:00Z,28.2598,-96.7737,0.0,25.2,11111222 
TCOON,ioos:station:TCOON:127:1,2019-05-07T08:24:00Z,28.2598,-96.7737,0.0,25.2,11111222 
TCOON,ioos:station:TCOON:127:1,2019-05-07T09:24:00Z,28.2598,-96.7737,0.0,25.2,11111222 
TCOON,ioos:station:TCOON:127:1,2019-05-07T10:24:00Z,28.2598,-96.7737,0.0,25.2,11111222 
TCOON,ioos:station:TCOON:127:1,2019-05-07T11:24:00Z,28.2598,-96.7737,0.0,25.1,11111222 
TCOON,ioos:station:TCOON:127:1,2019-05-07T12:24:00Z,28.2598,-96.7737,0.0,25.1,11111222 
TCOON,ioos:station:TCOON:127:1,2019-05-07T13:30:00Z,28.2598,-96.7737,0.0,25.1,11111222 
TCOON,ioos:station:TCOON:127:1,2019-05-07T14:30:00Z,28.2598,-96.7737,0.0,25.2,11111222 
TCOON,ioos:station:TCOON:127:1,2019-05-07T15:24:00Z,28.2598,-96.7737,0.0,25.2,11111222 
TCOON,ioos:station:TCOON:127:1,2019-05-07T16:24:00Z,28.2598,-96.7737,0.0,25.3,11111222 
TCOON,ioos:station:TCOON:127:1,2019-05-07T17:30:00Z,28.2598,-96.7737,0.0,25.6,11111222 
TCOON,ioos:station:TCOON:127:1,2019-05-07T18:30:00Z,28.2598,-96.7737,0.0,25.9,11111222 
TCOON,ioos:station:TCOON:127:1,2019-05-07T19:30:00Z,28.2598,-96.7737,0.0,26.1,11111222 
TCOON,ioos:station:TCOON:127:1,2019-05-07T20:24:00Z,28.2598,-96.7737,0.0,26.2,11111222 
TCOON,ioos:station:TCOON:127:1,2019-05-07T21:24:00Z,28.2598,-96.7737,0.0,26.3,11111222 
TCOON,ioos:station:TCOON:127:1,2019-05-07T22:24:00Z,28.2598,-96.7737,0.0,26.2,11111222 
TCOON,ioos:station:TCOON:127:1,2019-05-07T23:24:00Z,28.2598,-96.7737,0.0,26.2,11111222 
TCOON,ioos:station:TCOON:127:1,2019-05-08T00:24:00Z,28.2598,-96.7737,0.0,26.2,11111222 
TCOON,ioos:station:TCOON:127:1,2019-05-08T01:24:00Z,28.2598,-96.7737,0.0,26.1,11111222 
TCOON,ioos:station:TCOON:127:1,2019-05-08T02:24:00Z,28.2598,-96.7737,0.0,26.1,11111222 
TCOON,ioos:station:TCOON:127:1,2019-05-08T03:24:00Z,28.2598,-96.7737,0.0,26.0,11111222 
TCOON,ioos:station:TCOON:127:1,2019-05-08T04:24:00Z,28.2598,-96.7737,0.0,25.9,11111222 
TCOON,ioos:station:TCOON:127:1,2019-05-08T05:24:00Z,28.2598,-96.7737,0.0,25.9,11111222 
TCOON,ioos:station:TCOON:127:1,2019-05-08T06:24:00Z,28.2598,-96.7737,0.0,25.8,11111222 
TCOON,ioos:station:TCOON:127:1,2019-05-08T07:24:00Z,28.2598,-96.7737,0.0,25.6,11111222 
TCOON,ioos:station:TCOON:127:1,2019-05-08T08:24:00Z,28.2598,-96.7737,0.0,25.7,11111222 
TCOON,ioos:station:TCOON:127:1,2019-05-08T09:24:00Z,28.2598,-96.7737,0.0,25.7,11111222 
TCOON,ioos:station:TCOON:127:1,2019-05-08T10:24:00Z,28.2598,-96.7737,0.0,25.5,11111222 
TCOON,ioos:station:TCOON:127:1,2019-05-08T11:24:00Z,28.2598,-96.7737,0.0,25.5,11111222 
TCOON,ioos:station:TCOON:127:1,2019-05-08T12:24:00Z,28.2598,-96.7737,0.0,25.5,11111222 
TCOON,ioos:station:TCOON:127:1,2019-05-08T13:24:00Z,28.2598,-96.7737,0.0,25.4,11111222 
TCOON,ioos:station:TCOON:127:1,2019-05-08T14:24:00Z,28.2598,-96.7737,0.0,25.4,11111222 
TCOON,ioos:station:TCOON:127:1,2019-05-08T15:24:00Z,28.2598,-96.7737,0.0,25.5,11111222 
TCOON,ioos:station:TCOON:127:1,2019-05-08T16:24:00Z,28.2598,-96.7737,0.0,25.6,11111222 
TCOON,ioos:station:TCOON:127:1,2019-05-08T17:24:00Z,28.2598,-96.7737,0.0,25.9,11111222 
TCOON,ioos:station:TCOON:127:1,2019-05-08T18:24:00Z,28.2598,-96.7737,0.0,25.9,11111222 
TCOON,ioos:station:TCOON:127:1,2019-05-08T19:24:00Z,28.2598,-96.7737,0.0,26.1,11111222 
TCOON,ioos:station:TCOON:127:1,2019-05-08T20:24:00Z,28.2598,-96.7737,0.0,26.2,11111222 
TCOON,ioos:station:TCOON:127:1,2019-05-08T21:24:00Z,28.2598,-96.7737,0.0,26.4,11111222 
TCOON,ioos:station:TCOON:127:1,2019-05-08T22:24:00Z,28.2598,-96.7737,0.0,26.6,11111222 
TCOON,ioos:station:TCOON:127:1,2019-05-08T23:24:00Z,28.2598,-96.7737,0.0,26.6,11111222 
TCOON,ioos:station:TCOON:127:1,2019-05-09T00:24:00Z,28.2598,-96.7737,0.0,26.5,11111222 
TCOON,ioos:station:TCOON:127:1,2019-05-09T01:24:00Z,28.2598,-96.7737,0.0,26.5,11111222 
TCOON,ioos:station:TCOON:127:1,2019-05-09T02:24:00Z,28.2598,-96.7737,0.0,26.4,11111222 
TCOON,ioos:station:TCOON:127:1,2019-05-09T03:24:00Z,28.2598,-96.7737,0.0,26.4,11111222 
TCOON,ioos:station:TCOON:127:1,2019-05-09T04:24:00Z,28.2598,-96.7737,0.0,26.4,11111222 
TCOON,ioos:station:TCOON:127:1,2019-05-09T05:24:00Z,28.2598,-96.7737,0.0,26.3,11111222 
TCOON,ioos:station:TCOON:127:1,2019-05-09T22:24:00Z,28.2598,-96.7737,0.0,27.5,11111222 
TCOON,ioos:station:TCOON:127:1,2019-05-09T23:24:00Z,28.2598,-96.7737,0.0,27.6,11111222 
TCOON,ioos:station:TCOON:127:1,2019-05-10T00:24:00Z,28.2598,-96.7737,0.0,27.6,11111222 
TCOON,ioos:station:TCOON:127:1,2019-05-10T01:24:00Z,28.2598,-96.7737,0.0,27.5,11111222 
TCOON,ioos:station:TCOON:127:1,2019-05-10T02:24:00Z,28.2598,-96.7737,0.0,27.3,11111222 
TCOON,ioos:station:TCOON:127:1,2019-05-10T03:24:00Z,28.2598,-96.7737,0.0,27.2,11111222 
TCOON,ioos:station:TCOON:127:1,2019-05-10T19:30:00Z,28.2598,-96.7737,0.0,25.5,11111222 
TCOON,ioos:station:TCOON:127:1,2019-05-10T20:24:00Z,28.2598,-96.7737,0.0,25.5,11111222 
TCOON,ioos:station:TCOON:127:1,2019-05-10T21:24:00Z,28.2598,-96.7737,0.0,25.5,11111222 
TCOON,ioos:station:TCOON:127:1,2019-05-10T22:24:00Z,28.2598,-96.7737,0.0,25.4,11111222 
TCOON,ioos:station:TCOON:127:1,2019-05-10T23:24:00Z,28.2598,-96.7737,0.0,25.4,11111222 
TCOON,ioos:station:TCOON:127:1,2019-05-11T00:24:00Z,28.2598,-96.7737,0.0,25.4,11111222 
TCOON,ioos:station:TCOON:127:1,2019-05-11T01:24:00Z,28.2598,-96.7737,0.0,25.5,11111222 
TCOON,ioos:station:TCOON:127:1,2019-05-11T02:24:00Z,28.2598,-96.7737,0.0,25.4,11111222 
TCOON,ioos:station:TCOON:127:1,2019-05-11T03:24:00Z,28.2598,-96.7737,0.0,25.3,11111222 
TCOON,ioos:station:TCOON:127:1,2019-05-11T04:24:00Z,28.2598,-96.7737,0.0,25.1,11111222 
TCOON,ioos:station:TCOON:127:1,2019-05-13T13:30:00Z,28.2598,-96.7737,0.0,23.9,11111222 
TCOON,ioos:station:TCOON:127:1,2019-05-13T14:24:00Z,28.2598,-96.7737,0.0,23.9,11111222 
TCOON,ioos:station:TCOON:127:1,2019-05-13T15:24:00Z,28.2598,-96.7737,0.0,24.0,11111222 
TCOON,ioos:station:TCOON:127:1,2019-05-13T16:24:00Z,28.2598,-96.7737,0.0,24.2,11111222 
TCOON,ioos:station:TCOON:127:1,2019-05-13T17:24:00Z,28.2598,-96.7737,0.0,24.2,11111222 
TCOON,ioos:station:TCOON:127:1,2019-05-13T18:24:00Z,28.2598,-96.7737,0.0,24.3,11111222 
TCOON,ioos:station:TCOON:127:1,2019-05-13T19:24:00Z,28.2598,-96.7737,0.0,24.4,11111222 
TCOON,ioos:station:TCOON:127:1,2019-05-13T20:24:00Z,28.2598,-96.7737,0.0,24.6,11111222 
TCOON,ioos:station:TCOON:127:1,2019-05-13T21:24:00Z,28.2598,-96.7737,0.0,24.6,11111222 
TCOON,ioos:station:TCOON:127:1,2019-05-13T22:24:00Z,28.2598,-96.7737,0.0,24.7,11111222 
TCOON,ioos:station:TCOON:127:1,2019-05-13T23:24:00Z,28.2598,-96.7737,0.0,24.8,11111222 
TCOON,ioos:station:TCOON:127:1,2019-05-14T00:24:00Z,28.2598,-96.7737,0.0,24.8,11111222 
TCOON,ioos:station:TCOON:127:1,2019-05-14T01:24:00Z,28.2598,-96.7737,0.0,24.7,11111222 
TCOON,ioos:station:TCOON:127:1,2019-05-14T02:24:00Z,28.2598,-96.7737,0.0,24.7,11111222 
TCOON,ioos:station:TCOON:127:1,2019-05-14T03:24:00Z,28.2598,-96.7737,0.0,24.6,11111222 
TCOON,ioos:station:TCOON:127:1,2019-05-14T04:24:00Z,28.2598,-96.7737,0.0,24.6,11111222 
TCOON,ioos:station:TCOON:127:1,2019-05-14T05:24:00Z,28.2598,-96.7737,0.0,24.5,11111222 
TCOON,ioos:station:TCOON:127:1,2019-05-14T06:24:00Z,28.2598,-96.7737,0.0,24.5,11111222 
TCOON,ioos:station:TCOON:127:1,2019-05-14T07:24:00Z,28.2598,-96.7737,0.0,24.4,11111222 
TCOON,ioos:station:TCOON:127:1,2019-05-14T08:24:00Z,28.2598,-96.7737,0.0,24.4,11111222 
TCOON,ioos:station:TCOON:127:1,2019-05-14T09:24:00Z,28.2598,-96.7737,0.0,24.2,11111222 
TCOON,ioos:station:TCOON:127:1,2019-05-14T10:24:00Z,28.2598,-96.7737,0.0,24.2,11111222 
TCOON,ioos:station:TCOON:127:1,2019-05-14T11:24:00Z,28.2598,-96.7737,0.0,24.0,11111222 
TCOON,ioos:station:TCOON:127:1,2019-05-14T12:24:00Z,28.2598,-96.7737,0.0,24.0,11111222 
TCOON,ioos:station:TCOON:127:1,2019-05-14T13:24:00Z,28.2598,-96.7737,0.0,24.1,11111222 
TCOON,ioos:station:TCOON:127:1,2019-05-14T14:24:00Z,28.2598,-96.7737,0.0,24.2,11111222 
TCOON,ioos:station:TCOON:127:1,2019-05-14T15:24:00Z,28.2598,-96.7737,0.0,24.4,11111222 
TCOON,ioos:station:TCOON:127:1,2019-05-14T16:24:00Z,28.2598,-96.7737,0.0,24.8,11111222 
TCOON,ioos:station:TCOON:127:1,2019-05-14T17:24:00Z,28.2598,-96.7737,0.0,25.2,11111222 
TCOON,ioos:station:TCOON:127:1,2019-05-14T18:24:00Z,28.2598,-96.7737,0.0,25.4,11111222 
TCOON,ioos:station:TCOON:127:1,2019-05-14T19:24:00Z,28.2598,-96.7737,0.0,25.5,11111222 
TCOON,ioos:station:TCOON:127:1,2019-05-14T20:24:00Z,28.2598,-96.7737,0.0,25.5,11111222 
TCOON,ioos:station:TCOON:127:1,2019-05-14T21:24:00Z,28.2598,-96.7737,0.0,25.6,11111222 
TCOON,ioos:station:TCOON:127:1,2019-05-14T22:24:00Z,28.2598,-96.7737,0.0,25.7,11111222 
TCOON,ioos:station:TCOON:127:1,2019-05-14T23:24:00Z,28.2598,-96.7737,0.0,25.5,11111222 
TCOON,ioos:station:TCOON:127:1,2019-05-15T00:24:00Z,28.2598,-96.7737,0.0,25.6,11111222 
TCOON,ioos:station:TCOON:127:1,2019-05-15T01:24:00Z,28.2598,-96.7737,0.0,25.6,11111222 
TCOON,ioos:station:TCOON:127:1,2019-05-15T02:24:00Z,28.2598,-96.7737,0.0,25.5,11111222 
TCOON,ioos:station:TCOON:127:1,2019-05-15T03:24:00Z,28.2598,-96.7737,0.0,25.4,11111222 
TCOON,ioos:station:TCOON:127:1,2019-05-15T04:24:00Z,28.2598,-96.7737,0.0,25.3,11111222 
TCOON,ioos:station:TCOON:127:1,2019-05-15T05:24:00Z,28.2598,-96.7737,0.0,25.2,11111222 
TCOON,ioos:station:TCOON:127:1,2019-05-15T06:24:00Z,28.2598,-96.7737,0.0,25.2,11111222 
TCOON,ioos:station:TCOON:127:1,2019-05-15T07:24:00Z,28.2598,-96.7737,0.0,25.1,11111222 
TCOON,ioos:station:TCOON:127:1,2019-05-15T08:24:00Z,28.2598,-96.7737,0.0,25.0,11111222 
TCOON,ioos:station:TCOON:127:1,2019-05-15T09:24:00Z,28.2598,-96.7737,0.0,24.9,11111222 
TCOON,ioos:station:TCOON:127:1,2019-05-15T10:24:00Z,28.2598,-96.7737,0.0,24.9,11111222 
TCOON,ioos:station:TCOON:127:1,2019-05-15T11:24:00Z,28.2598,-96.7737,0.0,25.0,11111222 
TCOON,ioos:station:TCOON:127:1,2019-05-15T12:24:00Z,28.2598,-96.7737,0.0,25.0,11111222 
TCOON,ioos:station:TCOON:127:1,2019-05-15T13:24:00Z,28.2598,-96.7737,0.0,25.0,11111222 
TCOON,ioos:station:TCOON:127:1,2019-05-15T14:24:00Z,28.2598,-96.7737,0.0,25.0,11111222 
TCOON,ioos:station:TCOON:127:1,2019-05-15T15:24:00Z,28.2598,-96.7737,0.0,25.2,11111222 
TCOON,ioos:station:TCOON:127:1,2019-05-15T16:24:00Z,28.2598,-96.7737,0.0,25.4,11111222 
TCOON,ioos:station:TCOON:127:1,2019-05-15T17:24:00Z,28.2598,-96.7737,0.0,25.6,11111222 
TCOON,ioos:station:TCOON:127:1,2019-05-15T18:24:00Z,28.2598,-96.7737,0.0,25.9,11111222 
TCOON,ioos:station:TCOON:127:1,2019-05-15T19:24:00Z,28.2598,-96.7737,0.0,26.1,11111222 
TCOON,ioos:station:TCOON:127:1,2019-05-15T20:24:00Z,28.2598,-96.7737,0.0,26.5,11111222 
TCOON,ioos:station:TCOON:127:1,2019-05-15T21:24:00Z,28.2598,-96.7737,0.0,26.5,11111222 
TCOON,ioos:station:TCOON:127:1,2019-05-15T22:24:00Z,28.2598,-96.7737,0.0,26.7,11111222 
TCOON,ioos:station:TCOON:127:1,2019-05-15T23:24:00Z,28.2598,-96.7737,0.0,26.7,11111222 
TCOON,ioos:station:TCOON:127:1,2019-05-16T00:24:00Z,28.2598,-96.7737,0.0,26.6,11111222 
TCOON,ioos:station:TCOON:127:1,2019-05-16T01:24:00Z,28.2598,-96.7737,0.0,26.5,11111222 
TCOON,ioos:station:TCOON:127:1,2019-05-16T02:24:00Z,28.2598,-96.7737,0.0,26.4,11111222 
TCOON,ioos:station:TCOON:127:1,2019-05-16T03:24:00Z,28.2598,-96.7737,0.0,26.3,11111222 
TCOON,ioos:station:TCOON:127:1,2019-05-16T04:24:00Z,28.2598,-96.7737,0.0,26.2,11111222 
TCOON,ioos:station:TCOON:127:1,2019-05-16T05:24:00Z,28.2598,-96.7737,0.0,26.1,11111222 
TCOON,ioos:station:TCOON:127:1,2019-05-16T06:24:00Z,28.2598,-96.7737,0.0,26.0,11111222 
TCOON,ioos:station:TCOON:127:1,2019-05-16T07:24:00Z,28.2598,-96.7737,0.0,25.9,11111222 
TCOON,ioos:station:TCOON:127:1,2019-05-16T08:24:00Z,28.2598,-96.7737,0.0,26.0,11111222 
TCOON,ioos:station:TCOON:127:1,2019-05-16T09:24:00Z,28.2598,-96.7737,0.0,25.9,11111222 
TCOON,ioos:station:TCOON:127:1,2019-05-16T10:24:00Z,28.2598,-96.7737,0.0,25.9,11111222 
TCOON,ioos:station:TCOON:127:1,2019-05-16T11:24:00Z,28.2598,-96.7737,0.0,25.8,11111222 
TCOON,ioos:station:TCOON:127:1,2019-05-16T12:24:00Z,28.2598,-96.7737,0.0,25.8,11111222 
TCOON,ioos:station:TCOON:127:1,2019-05-16T13:24:00Z,28.2598,-96.7737,0.0,25.8,11111222 
TCOON,ioos:station:TCOON:127:1,2019-05-16T14:24:00Z,28.2598,-96.7737,0.0,25.9,11111222 
TCOON,ioos:station:TCOON:127:1,2019-05-16T15:30:00Z,28.2598,-96.7737,0.0,26.0,11111222 
TCOON,ioos:station:TCOON:127:1,2019-05-16T16:24:00Z,28.2598,-96.7737,0.0,26.1,11111222 
TCOON,ioos:station:TCOON:127:1,2019-05-16T17:30:00Z,28.2598,-96.7737,0.0,26.6,11111222 
TCOON,ioos:station:TCOON:127:1,2019-05-16T18:24:00Z,28.2598,-96.7737,0.0,26.8,11111222 
TCOON,ioos:station:TCOON:127:1,2019-05-16T19:24:00Z,28.2598,-96.7737,0.0,27.2,11111222 
TCOON,ioos:station:TCOON:127:1,2019-05-16T20:24:00Z,28.2598,-96.7737,0.0,27.4,11111222 
TCOON,ioos:station:TCOON:127:1,2019-05-16T21:30:00Z,28.2598,-96.7737,0.0,27.6,11111222 
TCOON,ioos:station:TCOON:127:1,2019-05-16T22:30:00Z,28.2598,-96.7737,0.0,27.6,11111222 
TCOON,ioos:station:TCOON:127:1,2019-05-16T23:24:00Z,28.2598,-96.7737,0.0,27.6,11111222 
TCOON,ioos:station:TCOON:127:1,2019-05-17T00:24:00Z,28.2598,-96.7737,0.0,27.5,11111222 
TCOON,ioos:station:TCOON:127:1,2019-05-17T01:24:00Z,28.2598,-96.7737,0.0,27.4,11111222 
TCOON,ioos:station:TCOON:127:1,2019-05-17T02:24:00Z,28.2598,-96.7737,0.0,27.3,11111222 
TCOON,ioos:station:TCOON:127:1,2019-05-17T03:24:00Z,28.2598,-96.7737,0.0,27.2,11111222 
TCOON,ioos:station:TCOON:127:1,2019-05-17T04:24:00Z,28.2598,-96.7737,0.0,27.1,11111222 
TCOON,ioos:station:TCOON:127:1,2019-05-17T05:36:00Z,28.2598,-96.7737,0.0,26.9,11111222 
TCOON,ioos:station:TCOON:127:1,2019-05-17T06:24:00Z,28.2598,-96.7737,0.0,26.8,11111222 
TCOON,ioos:station:TCOON:127:1,2019-05-17T07:24:00Z,28.2598,-96.7737,0.0,26.9,11111222 
TCOON,ioos:station:TCOON:127:1,2019-05-17T08:24:00Z,28.2598,-96.7737,0.0,26.8,11111222 
TCOON,ioos:station:TCOON:127:1,2019-05-17T09:24:00Z,28.2598,-96.7737,0.0,26.8,11111222 
TCOON,ioos:station:TCOON:127:1,2019-05-17T10:24:00Z,28.2598,-96.7737,0.0,26.7,11111222 
TCOON,ioos:station:TCOON:127:1,2019-05-17T11:24:00Z,28.2598,-96.7737,0.0,26.7,11111222 
TCOON,ioos:station:TCOON:127:1,2019-05-17T12:24:00Z,28.2598,-96.7737,0.0,26.6,11111222 
TCOON,ioos:station:TCOON:127:1,2019-05-17T13:30:00Z,28.2598,-96.7737,0.0,26.6,11111222 
TCOON,ioos:station:TCOON:127:1,2019-05-17T14:24:00Z,28.2598,-96.7737,0.0,26.6,11111222 
TCOON,ioos:station:TCOON:127:1,2019-05-17T15:30:00Z,28.2598,-96.7737,0.0,26.7,11111222 
TCOON,ioos:station:TCOON:127:1,2019-05-17T16:30:00Z,28.2598,-96.7737,0.0,26.8,11111222 
TCOON,ioos:station:TCOON:127:1,2019-05-17T17:30:00Z,28.2598,-96.7737,0.0,27.0,11111222 
TCOON,ioos:station:TCOON:127:1,2019-05-17T18:30:00Z,28.2598,-96.7737,0.0,27.3,11111222 
TCOON,ioos:station:TCOON:127:1,2019-05-17T19:30:00Z,28.2598,-96.7737,0.0,27.4,11111222 
TCOON,ioos:station:TCOON:127:1,2019-05-17T20:30:00Z,28.2598,-96.7737,0.0,27.5,11111222 
TCOON,ioos:station:TCOON:127:1,2019-05-17T21:30:00Z,28.2598,-96.7737,0.0,27.6,11111222 
TCOON,ioos:station:TCOON:127:1,2019-05-17T22:30:00Z,28.2598,-96.7737,0.0,27.7,11111222 
TCOON,ioos:station:TCOON:127:1,2019-05-17T23:24:00Z,28.2598,-96.7737,0.0,27.6,11111222 